Waterloo, IA

4:57 PM CST on January 17, 2018 (GMT -0600)
Waterloo Municipal

Weather History for KALO - July, 2013

Change the Weather History Date:

Sunday, July 21, 2013

  Actual Average Record
Temperature  
Mean Temperature 75 °F 74 °F  
Max Temperature 87 °F 84 °F 106 °F (1901)
Min Temperature 63 °F 63 °F 46 °F (1944)
Degree Days  
Heating Degree Days 0 0  
Month to date heating degree days 0 0  
Since 1 June heating degree days 38 26  
Since 1 July heating degree days 0 0  
Cooling Degree Days 10 9  
Month to date cooling degree days 225 189  
Year to date cooling degree days 446 422  
Since 1 June cooling degree days 393 366  
Growing Degree Days 25 (Base 50)    
Moisture  
Dew Point 64 °F    
Average Humidity 65    
Maximum Humidity 93    
Minimum Humidity 37    
Precipitation  
Precipitation T in 0.16 in 1.57 in (2001)
Month to date precipitation 0.30 3.46  
Year to date precipitation 28.56 20.56  
Snow  
Snow 0.00 in 0.00 in - ()
Month to date snowfall 0.0 0.0  
Since 1 June snowfall 0.0 0.0  
Since 1 July snowfall 0.0 0.0  
Snow Depth 0.00 in    
Sea Level Pressure  
Sea Level Pressure 29.86 in    
Wind  
Wind Speed 7 mph (SE)    
Max Wind Speed 18 mph    
Max Gust Speed 32 mph    
Visibility 10 miles    
Events      
T = Trace of Precipitation, MM = Missing Value Source: NWS Daily Summary

Daily Weather History Graph

Daily Weather History Graph

Search for Another Location

Airport or City:

Trip Planner

Search our weather history database for the weather conditions in past years. The results will help you decide how hot, cold, wet, or windy it might be!

Date:

Astronomy

Jul. 21, 2013 Rise Set
Actual Time 5:51 AM CDT 8:40 PM CDT
Civil Twilight 5:17 AM CDT 9:13 PM CDT
Nautical Twilight 4:36 AM CDT 9:55 PM CDT
Astronomical Twilight 3:47 AM CDT 10:43 PM CDT
Moon 7:37 PM CDT (7/21) 4:37 AM CDT (7/21)
Length of Visible Light 15h 55m
Length of Day
14h 49m
Waxing Gibbous, 98% of the Moon is Illuminated
Jul 21
Waxing Gibbous
Jul 22
Full
Jul 29
Last Quarter
Aug 6
New
Aug 14
First Quarter

Hourly Weather History & Observations

Time (CDT) Temp. Heat Index Dew Point Humidity Pressure Visibility Wind Dir Wind Speed Gust Speed Precip Events Conditions
12:54 AM 70.0 °F - 64.9 °F 84% 29.91 in 10.0 mi Calm Calm - N/A   Clear
1:54 AM 71.1 °F - 64.0 °F 78% 29.91 in 10.0 mi South 3.5 mph - N/A   Clear
2:54 AM 69.1 °F - 63.0 °F 81% 29.89 in 10.0 mi Calm Calm - N/A   Clear
3:54 AM 64.9 °F - 61.0 °F 87% 29.88 in 10.0 mi ESE 3.5 mph - N/A   Clear
4:54 AM 64.9 °F - 62.1 °F 90% 29.88 in 10.0 mi Calm Calm - N/A   Clear
5:54 AM 64.0 °F - 62.1 °F 93% 29.88 in 10.0 mi Calm Calm - N/A   Clear
6:54 AM 66.9 °F - 64.0 °F 90% 29.89 in 10.0 mi East 3.5 mph - N/A   Clear
7:54 AM 70.0 °F - 64.0 °F 81% 29.88 in 10.0 mi ESE 5.8 mph - N/A   Mostly Cloudy
8:54 AM 75.0 °F - 64.0 °F 69% 29.88 in 10.0 mi ESE 5.8 mph - N/A   Partly Cloudy
9:54 AM 79.0 °F - 64.0 °F 60% 29.88 in 10.0 mi SE 6.9 mph - N/A   Clear
10:54 AM 80.1 °F 82.1 °F 66.0 °F 62% 29.89 in 9.0 mi Variable 4.6 mph - N/A   Partly Cloudy
11:54 AM 80.1 °F 81.9 °F 64.9 °F 60% 29.88 in 10.0 mi SE 10.4 mph - N/A   Scattered Clouds
12:54 PM 82.0 °F 84.1 °F 66.0 °F 58% 29.87 in 10.0 mi SSE 11.5 mph - 0.00 in   Mostly Cloudy
1:54 PM 86.0 °F 86.8 °F 63.0 °F 46% 29.86 in 10.0 mi SSE 13.8 mph - N/A   Clear
2:54 PM 86.0 °F 85.0 °F 57.9 °F 38% 29.84 in 10.0 mi South 16.1 mph 21.9 mph N/A   Clear
3:54 PM 82.9 °F 83.2 °F 60.1 °F 46% 29.84 in 10.0 mi North - - N/A   Scattered Clouds
4:54 PM 82.0 °F 82.7 °F 61.0 °F 49% 29.81 in 10.0 mi SSW 8.1 mph - N/A   Clear
5:54 PM 82.0 °F 84.1 °F 66.0 °F 58% 29.82 in 10.0 mi South 11.5 mph - N/A   Mostly Cloudy
6:54 PM 80.1 °F 82.1 °F 66.0 °F 62% 29.82 in 10.0 mi South 8.1 mph - N/A   Partly Cloudy
7:54 PM 78.1 °F - 68.0 °F 71% 29.82 in 10.0 mi South 8.1 mph - N/A   Clear
8:54 PM 75.0 °F - 64.0 °F 69% 29.82 in 10.0 mi SSE 6.9 mph - N/A   Clear
9:54 PM 69.1 °F - 64.9 °F 87% 29.83 in 10.0 mi East 6.9 mph - N/A   Clear
10:54 PM 69.1 °F - 64.9 °F 87% 29.87 in 10.0 mi East 3.5 mph - N/A   Scattered Clouds
11:54 PM 66.9 °F - 64.9 °F 93% 29.86 in 10.0 mi ESE 5.8 mph - N/A   Clear